Radiation Dose at Monitoring Post of Fukushima Daini Nuclear Power Station
Date,Time,MP-1(microSv/h),MP-2(microSv/h),MP-3(microSv/h),MP-4(microSv/h),MP-5(microSv/h),MP-6(microSv/h),MP-7(microSv/h),Wind Direction,Wind Velocity(m/s),Rain
2019/02/18,00:00,0.215,0.194,0.319,0.296,0.276,0.158,0.096,west-northwest,2.7,No
2019/02/18,00:10,0.217,0.195,0.318,0.295,0.278,0.158,0.096,west-northwest,2.5,No
2019/02/18,00:20,0.216,0.195,0.318,0.296,0.278,0.158,0.095,west-northwest,2.0,No
2019/02/18,00:30,0.215,0.195,0.317,0.296,0.277,0.159,0.095,north,1.4,No
2019/02/18,00:40,0.215,0.195,0.318,0.297,0.276,0.159,0.096,north-northeast,1.9,No
2019/02/18,00:50,0.215,0.195,0.318,0.298,0.277,0.159,0.096,north-northwest,3.5,No
2019/02/18,01:00,0.217,0.195,0.318,0.296,0.278,0.158,0.096,north-northwest,5.2,No
2019/02/18,01:10,0.216,0.196,0.318,0.296,0.278,0.159,0.096,north-northwest,6.3,No
2019/02/18,01:20,0.215,0.194,0.318,0.297,0.276,0.159,0.095,north-northwest,5.2,No
2019/02/18,01:30,0.217,0.195,0.318,0.296,0.277,0.159,0.096,west-northwest,4.9,No
2019/02/18,01:40,0.217,0.194,0.318,0.296,0.277,0.159,0.095,west-northwest,6.1,No
2019/02/18,01:50,0.215,0.196,0.319,0.296,0.278,0.158,0.096,west-northwest,4.9,No
2019/02/18,02:00,0.217,0.195,0.316,0.297,0.276,0.159,0.096,west,4.1,No
2019/02/18,02:10,0.215,0.195,0.319,0.297,0.278,0.159,0.095,west-northwest,3.7,No
2019/02/18,02:20,0.217,0.195,0.318,0.297,0.277,0.158,0.095,west-northwest,2.6,No
2019/02/18,02:30,0.216,0.195,0.317,0.297,0.277,0.158,0.095,west,3.4,No
2019/02/18,02:40,0.216,0.194,0.318,0.296,0.278,0.160,0.095,west,3.8,No
2019/02/18,02:50,0.216,0.196,0.318,0.296,0.277,0.157,0.096,west,4.0,No
2019/02/18,03:00,0.217,0.195,0.318,0.296,0.275,0.158,0.096,west-northwest,2.2,No
2019/02/18,03:10,0.217,0.195,0.318,0.296,0.276,0.158,0.095,west-northwest,0.9,No
2019/02/18,03:20,0.216,0.195,0.318,0.296,0.278,0.158,0.096,west-northwest,1.0,No
2019/02/18,03:30,0.216,0.196,0.318,0.297,0.277,0.158,0.095,northwest,0.7,No
2019/02/18,03:40,0.217,0.194,0.319,0.296,0.277,0.158,0.095,north,0.9,No
2019/02/18,03:50,0.216,0.195,0.318,0.296,0.276,0.158,0.095,north,1.3,No
2019/02/18,04:00,0.216,0.196,0.317,0.296,0.276,0.159,0.096,north-northwest,1.2,No
2019/02/18,04:10,0.215,0.196,0.318,0.297,0.277,0.158,0.095,north-northeast,1.0,No
2019/02/18,04:20,0.217,0.195,0.318,0.296,0.277,0.159,0.096,north-northeast,1.6,No
2019/02/18,04:30,0.216,0.195,0.319,0.296,0.277,0.158,0.096,north-northeast,0.8,No
2019/02/18,04:40,0.216,0.195,0.318,0.297,0.276,0.158,0.095,-,CALM,No
2019/02/18,04:50,0.216,0.195,0.318,0.296,0.276,0.159,0.095,-,CALM,No
2019/02/18,05:00,0.215,0.195,0.318,0.296,0.277,0.158,0.095,east,1.6,No
2019/02/18,05:10,0.216,0.195,0.319,0.297,0.277,0.158,0.096,east-southeast,1.6,No
2019/02/18,05:20,0.216,0.195,0.320,0.297,0.277,0.158,0.095,east-northeast,1.3,No
2019/02/18,05:30,0.215,0.195,0.317,0.297,0.276,0.160,0.096,east-southeast,1.3,No
2019/02/18,05:40,0.216,0.195,0.319,0.296,0.277,0.158,0.096,southeast,1.2,No
2019/02/18,05:50,0.215,0.196,0.318,0.297,0.276,0.159,0.095,southeast,2.0,No
2019/02/18,06:00,0.218,0.194,0.319,0.296,0.277,0.159,0.095,south-southeast,2.4,No
2019/02/18,06:10,0.217,0.196,0.317,0.296,0.278,0.158,0.096,south-southeast,2.5,No
2019/02/18,06:20,0.216,0.196,0.318,0.296,0.276,0.158,0.095,south,2.9,No
2019/02/18,06:30,0.216,0.196,0.318,0.296,0.277,0.159,0.097,southwest,1.2,No
2019/02/18,06:40,0.216,0.194,0.318,0.297,0.276,0.159,0.096,south,1.1,No
2019/02/18,06:50,0.216,0.195,0.320,0.296,0.277,0.159,0.096,south,2.7,No
2019/02/18,07:00,0.217,0.195,0.318,0.297,0.278,0.158,0.095,southwest,3.5,No
2019/02/18,07:10,0.216,0.195,0.318,0.295,0.276,0.159,0.096,southwest,4.0,No
2019/02/18,07:20,0.215,0.195,0.317,0.295,0.276,0.158,0.095,south-southwest,3.3,No
2019/02/18,07:30,0.217,0.196,0.317,0.295,0.276,0.159,0.095,south-southwest,3.6,No
2019/02/18,07:40,0.215,0.194,0.318,0.296,0.277,0.159,0.095,south-southwest,2.7,No
2019/02/18,07:50,0.216,0.195,0.318,0.296,0.277,0.158,0.096,west-southwest,3.5,No
2019/02/18,08:00,0.216,0.196,0.318,0.296,0.277,0.159,0.095,west,3.9,No
2019/02/18,08:10,0.215,0.195,0.318,0.296,0.276,0.159,0.095,west-southwest,6.0,No
2019/02/18,08:20,0.215,0.195,0.318,0.295,0.277,0.159,0.094,west,7.1,No
2019/02/18,08:30,0.215,0.194,0.317,0.294,0.278,0.159,0.095,west,6.8,No
2019/02/18,08:40,0.215,0.195,0.317,0.295,0.277,0.159,0.095,west,5.9,No
2019/02/18,08:50,0.216,0.195,0.318,0.295,0.278,0.158,0.096,west,7.3,No
2019/02/18,09:00,0.216,0.195,0.318,0.295,0.277,0.158,0.095,west-southwest,7.7,No
2019/02/18,09:10,0.214,0.194,0.317,0.296,0.277,0.159,0.096,west,8.7,No
2019/02/18,09:20,0.215,0.194,0.317,0.295,0.277,0.158,0.095,west,7.9,No
2019/02/18,09:30,0.216,0.195,0.317,0.295,0.278,0.158,0.095,west-southwest,8.1,No
2019/02/18,09:40,0.214,0.194,0.318,0.296,0.278,0.159,0.094,west-southwest,4.5,No
2019/02/18,09:50,0.214,0.195,0.317,0.295,0.278,0.157,0.095,west-southwest,6.2,No
2019/02/18,10:00,0.214,0.195,0.318,0.296,0.278,0.158,0.095,west-southwest,6.6,No
2019/02/18,10:10,0.214,0.194,0.318,0.295,0.276,0.157,0.095,west-southwest,5.7,No
2019/02/18,10:20,0.215,0.194,0.316,0.295,0.279,0.158,0.094,west,6.6,No
2019/02/18,10:30,0.215,0.193,0.319,0.294,0.275,0.157,0.096,west-southwest,5.6,No
2019/02/18,10:40,0.213,0.195,0.316,0.295,0.279,0.158,0.095,west-southwest,9.5,No
2019/02/18,10:50,0.215,0.195,0.318,0.294,0.276,0.159,0.095,west,10.1,No
2019/02/18,11:00,0.213,0.194,0.319,0.293,0.277,0.159,0.095,west-southwest,7.4,No
2019/02/18,11:10,0.214,0.194,0.318,0.296,0.277,0.158,0.096,west,7.3,No
2019/02/18,11:20,0.214,0.194,0.317,0.296,0.279,0.160,0.095,west,9.8,No
2019/02/18,11:30,0.215,0.194,0.318,0.294,0.276,0.159,0.095,west,8.4,No
2019/02/18,11:40,0.215,0.194,0.316,0.297,0.277,0.159,0.095,west-southwest,10.6,No
2019/02/18,11:50,0.215,0.194,0.317,0.293,0.276,0.157,0.095,west,10.9,No
2019/02/18,12:00,0.215,0.195,0.316,0.296,0.279,0.159,0.095,west,10.1,No
2019/02/18,12:10,0.214,0.195,0.317,0.294,0.277,0.159,0.095,west,9.6,No
2019/02/18,12:20,0.214,0.195,0.318,0.297,0.279,0.158,0.095,west,9.2,No
2019/02/18,12:30,0.215,0.195,0.316,0.295,0.277,0.158,0.095,west-southwest,10.3,No
2019/02/18,12:40,0.215,0.195,0.318,0.296,0.278,0.159,0.095,west,12.3,No
2019/02/18,12:50,0.214,0.195,0.316,0.295,0.277,0.158,0.095,west,9.5,No
2019/02/18,13:00,0.216,0.194,0.317,0.296,0.279,0.158,0.096,west,12.5,No
2019/02/18,13:10,0.214,0.195,0.316,0.296,0.276,0.158,0.095,west-northwest,11.4,No
2019/02/18,13:20,0.215,0.193,0.316,0.296,0.280,0.159,0.095,west-northwest,12.0,No
2019/02/18,13:30,0.214,0.195,0.315,0.295,0.277,0.159,0.095,west-northwest,10.4,No
2019/02/18,13:40,0.214,0.194,0.319,0.296,0.280,0.158,0.095,west,8.7,No
2019/02/18,13:50,0.214,0.195,0.317,0.295,0.277,0.158,0.095,west-northwest,8.1,No
2019/02/18,14:00,0.215,0.195,0.318,0.295,0.279,0.159,0.095,west,10.9,No
2019/02/18,14:10,0.216,0.196,0.317,0.295,0.277,0.158,0.096,west,8.1,No
2019/02/18,14:20,0.214,0.196,0.317,0.296,0.280,0.158,0.095,west-northwest,11.2,No
2019/02/18,14:30,0.215,0.195,0.319,0.296,0.275,0.159,0.095,west-northwest,12.6,No
2019/02/18,14:40,0.215,0.194,0.318,0.296,0.278,0.159,0.095,west,12.2,No
2019/02/18,14:50,0.216,0.194,0.317,0.297,0.277,0.158,0.095,west,14.0,No
2019/02/18,15:00,0.216,0.194,0.319,0.296,0.279,0.159,0.095,west,10.1,No
2019/02/18,15:10,0.217,0.195,0.317,0.298,0.278,0.158,0.095,west-northwest,11.2,No
2019/02/18,15:20,0.215,0.194,0.317,0.297,0.279,0.159,0.095,west-northwest,9.2,No
2019/02/18,15:30,0.216,0.196,0.320,0.297,0.280,0.158,0.096,west,10.0,No
2019/02/18,15:40,0.217,0.196,0.318,0.296,0.279,0.158,0.095,west-northwest,9.7,No
2019/02/18,15:50,0.217,0.195,0.319,0.296,0.280,0.159,0.095,west-northwest,9.7,No
2019/02/18,16:00,0.215,0.195,0.319,0.297,0.278,0.158,0.095,west-northwest,9.0,No
2019/02/18,16:10,0.217,0.195,0.318,0.296,0.278,0.159,0.095,west,11.2,No
2019/02/18,16:20,0.216,0.195,0.318,0.296,0.279,0.158,0.095,west,12.8,No
2019/02/18,16:30,0.216,0.195,0.318,0.296,0.279,0.158,0.096,west,11.7,No
2019/02/18,16:40,0.216,0.195,0.319,0.296,0.278,0.159,0.095,west,10.1,No
2019/02/18,16:50,0.216,0.195,0.317,0.296,0.279,0.159,0.095,west,11.4,No
2019/02/18,17:00,0.215,0.196,0.318,0.296,0.279,0.159,0.096,west,12.0,No
2019/02/18,17:10,0.215,0.195,0.319,0.298,0.279,0.159,0.096,west-northwest,10.6,No
2019/02/18,17:20,0.216,0.196,0.318,0.298,0.279,0.160,0.094,west-northwest,11.5,No
2019/02/18,17:30,0.216,0.196,0.317,0.297,0.279,0.160,0.095,west-northwest,11.1,No
2019/02/18,17:40,0.216,0.195,0.318,0.297,0.278,0.160,0.095,west-northwest,11.7,No
2019/02/18,17:50,0.217,0.196,0.320,0.298,0.279,0.159,0.095,west-northwest,10.6,No
2019/02/18,18:00,0.217,0.195,0.318,0.297,0.279,0.159,0.096,west-northwest,10.9,No
2019/02/18,18:10,0.216,0.195,0.318,0.296,0.278,0.159,0.095,west-northwest,11.2,No
2019/02/18,18:20,0.216,0.195,0.318,0.297,0.279,0.159,0.095,west-northwest,9.5,No
2019/02/18,18:30,0.217,0.195,0.319,0.298,0.281,0.158,0.095,west-northwest,8.1,No
2019/02/18,18:40,0.216,0.195,0.318,0.296,0.278,0.159,0.095,west-northwest,3.7,No
2019/02/18,18:50,0.216,0.195,0.317,0.295,0.279,0.158,0.095,-,CALM,No
2019/02/18,19:00,0.216,0.194,0.318,0.296,0.277,0.158,0.095,east,3.1,No
2019/02/18,19:10,0.217,0.195,0.319,0.297,0.280,0.158,0.095,east-northeast,2.4,No
2019/02/18,19:20,0.217,0.195,0.317,0.296,0.278,0.159,0.095,north-northeast,1.4,No
2019/02/18,19:30,0.216,0.195,0.318,0.297,0.278,0.159,0.096,northwest,1.2,No
2019/02/18,19:40,0.216,0.195,0.318,0.297,0.277,0.158,0.095,east,1.5,No
2019/02/18,19:50,0.216,0.195,0.320,0.296,0.278,0.159,0.095,-,CALM,No
2019/02/18,20:00,0.216,0.196,0.318,0.296,0.277,0.158,0.095,west-southwest,1.3,No
2019/02/18,20:10,0.216,0.195,0.317,0.296,0.278,0.159,0.096,west,2.6,No
2019/02/18,20:20,0.216,0.194,0.319,0.298,0.277,0.158,0.095,west,2.4,No
2019/02/18,20:30,0.216,0.194,0.318,0.297,0.278,0.158,0.095,west,1.0,No
2019/02/18,20:40,0.216,0.195,0.317,0.297,0.278,0.158,0.095,west,1.8,No
2019/02/18,20:50,0.216,0.195,0.318,0.296,0.277,0.158,0.095,southwest,1.3,No
2019/02/18,21:00,0.218,0.196,0.317,0.298,0.278,0.159,0.095,west,0.8,No
2019/02/18,21:10,0.217,0.195,0.317,0.296,0.277,0.158,0.095,west-northwest,2.1,No
2019/02/18,21:20,0.216,0.196,0.317,0.295,0.278,0.159,0.095,west,3.5,No
2019/02/18,21:30,0.216,0.195,0.319,0.296,0.277,0.159,0.095,west-northwest,3.3,No
2019/02/18,21:40,0.216,0.195,0.319,0.296,0.278,0.159,0.095,west,3.6,No
2019/02/18,21:50,0.217,0.194,0.318,0.297,0.278,0.159,0.095,west-northwest,3.6,No
2019/02/18,22:00,0.217,0.195,0.319,0.296,0.277,0.158,0.096,northwest,1.6,No
2019/02/18,22:10,0.216,0.197,0.318,0.297,0.278,0.159,0.096,northwest,1.4,No
2019/02/18,22:20,0.216,0.195,0.318,0.297,0.279,0.158,0.095,northwest,1.6,No
2019/02/18,22:30,0.215,0.195,0.319,0.297,0.278,0.158,0.096,west,0.8,No
2019/02/18,22:40,0.218,0.195,0.318,0.297,0.277,0.158,0.095,-,CALM,No
2019/02/18,22:50,0.216,0.196,0.319,0.297,0.278,0.159,0.096,west-northwest,0.7,No
2019/02/18,23:00,0.216,0.197,0.319,0.297,0.279,0.159,0.095,north,0.9,No
2019/02/18,23:10,0.216,0.195,0.317,0.297,0.277,0.159,0.096,north,1.1,No
2019/02/18,23:20,0.217,0.195,0.318,0.297,0.277,0.159,0.096,north,2.4,No
2019/02/18,23:30,0.217,0.195,0.320,0.296,0.277,0.158,0.096,north-northeast,1.7,No
2019/02/18,23:40,0.216,0.196,0.318,0.296,0.278,0.158,0.095,northeast,2.0,No
2019/02/18,23:50,0.217,0.196,0.318,0.297,0.277,0.159,0.095,north-northeast,2.4,No
